Overview Statistics Trail Chart Weather Telemetry Raw packets
 

This is the latest recevied weather packets stored in our database for station/object PU5FJO-13. If no packets are shown the sender has not sent any weather packets the latest 10 day(s).

<< 24 25 26 27 28 29 30 >>
Time Temp. Humidity Pressure Rain* Wind** Luminosity Snow
1777457767 16.67° C 86% 1015.5 hPa - - - -
1777457167 16.67° C 87% 1015.4 hPa - - - -
1777456567 16.67° C 87% 1015.8 hPa - - - -
1777455967 17.22° C 85% 1014.9 hPa - - - -
1777455367 17.22° C 86% 1015.9 hPa - - - -
1777454767 16.67° C 86% 1014.6 hPa - - - -
1777454167 16.67° C 85% 1016.1 hPa - - - -
1777453567 16.67° C 85% 1016.5 hPa - - - -
1777452967 16.67° C 85% 1015.8 hPa - - - -
1777452367 16.67° C 86% 1015.4 hPa - - - -
1777451767 16.67° C 85% 1014.8 hPa - - - -
1777451167 16.67° C 85% 1015.4 hPa - - - -
1777450567 16.67° C 84% 1015.2 hPa - - - -
1777449967 17.22° C 82% 1015.3 hPa - - - -
1777449367 16.67° C 84% 1015.3 hPa - - - -
1777448167 16.67° C 83% 1015.4 hPa - - - -
1777447567 16.11° C 83% 1015.4 hPa - - - -
1777446967 16.67° C 81% 1015.2 hPa - - - -
1777446367 16.11° C 85% 1015.5 hPa - - - -
1777445767 15.56° C 86% 1015.2 hPa - - - -
1777445167 15.56° C 86% 1015 hPa - - - -
1777444567 16.11° C 84% 1015.3 hPa - - - -
1777443967 17.78° C 78% 1014.9 hPa - - - -
1777443367 16.67° C 80% 1015.3 hPa - - - -
1777442767 17.22° C 80% 1015.7 hPa - - - -

* Rain since midnight (hover to see other rain measurements)
** Current wind speed in m/s (hover to see current wind gust speed)